カタログに戻る

IRIDIUM 138

運用中通信PO
NORAD 43071·PAYLOAD·🇺🇸 United States

打ち上げ Dec 23, 2017 から Vandenberg Space Force Base

Loading…

次のパス (今後24時間)

TLE

最新Source: CelesTrak SupGP

元期: Sep 14, 2026, 08:45 UTC

1 43071C 17083B   26257.36493056  .00000749  00000+0  26769-3 0  2571
2 43071  86.3927 284.4434 0002485  93.8226  29.2848 14.34215433    14

AllMySatでIRIDIUM 138をリアルタイム追跡

Download on the App Store